Tracking 29892 objects as of 21-Nov-2024
HD Live streaming from Space Station
objects crossing your sky now

STARLINK-32268

Track STARLINK-32268 now!
10-day predictions
STARLINK-32268 is classified as:


NORAD ID: 60372
Int'l Code: 2024-138T
Perigee: 453.3 km
Apogee: 455.4 km
Inclination: 53.2 °
Period: 93.5 minutes
Semi major axis: 6825 km
RCS: Unknown
Launch date: August 4, 2024
Source: United States (US)
Launch site: AIR FORCE WESTERN TEST RANGE (AFWTR)
Your satellite tracking list
Your tracking list is empty




NASA's NSSDC Master Catalog

Two Line Element Set (TLE):
1 60372U 24138T   24324.38441642 -.00000448  00000-0 -12183-5 0  9991
2 60372  53.1599   0.3735 0001556 120.4189 239.6970 15.39614927 17812
Source of the keplerian elements: AFSPC